Location: Unspecified
(40.7945°N, 0.0000°E)
Time: 14:09:23
(UTC+00:00)

Altair - Visible Passes

Search period start: 25 January 2021 00:00
Search period end: 04 February 2021 00:00
Orbit: 1501 x 1682 km, 47.2° (Epoch: 24 January)

Date Brightness Start Highest point End Pass type
(mag) Time Alt. Az. Time Alt. Az. Time Alt. Az.
25 Jan 9.1 02:41:53 24° ESE 02:41:53 24° ESE 02:48:27 10° ENE visible
25 Jan 7.7 04:39:57 37° SW 04:44:34 73° SE 04:54:42 10° ENE visible
25 Jan 7.8 06:39:47 10° W 06:49:50 65° NNW 06:59:58 10° ENE visible
26 Jan 9.3 02:18:36 20° ESE 02:18:36 20° ESE 02:22:55 10° E visible
26 Jan 7.7 04:16:40 51° SSW 04:19:23 68° SE 04:29:27 10° ENE visible
26 Jan 7.8 06:14:43 11° W 06:24:33 67° NNW 06:34:42 10° ENE visible
27 Jan 9.6 01:55:12 15° E 01:55:12 15° E 01:57:19 10° E visible
27 Jan 7.7 03:53:15 62° SSE 03:54:12 64° SE 04:04:12 10° ENE visible
27 Jan 7.7 05:51:18 18° W 05:59:15 69° NNW 06:09:26 10° ENE visible
28 Jan 7.9 03:29:45 59° ESE 03:29:45 59° ESE 03:38:56 10° ENE visible
28 Jan 7.6 05:27:48 27° W 05:33:58 71° NNW 05:44:10 10° ENE visible
29 Jan 8.2 03:06:10 48° E 03:06:10 48° E 03:13:40 10° ENE visible
29 Jan 7.6 05:04:13 39° W 05:08:41 73° NNW 05:18:54 10° ENE visible
30 Jan 8.6 02:42:32 36° E 02:42:32 36° E 02:48:23 10° ENE visible
30 Jan 7.5 04:40:33 52° W 04:43:25 75° NNW 04:53:39 10° ENE visible
30 Jan 7.9 06:39:21 10° WNW 06:49:22 61° N 06:59:26 10° E visible
31 Jan 9.0 02:18:49 27° E 02:18:49 27° E 02:23:05 10° ENE visible
31 Jan 7.4 04:16:50 69° W 04:18:09 78° NNW 04:28:23 10° ENE visible
31 Jan 7.9 06:14:51 13° WNW 06:24:03 61° N 06:34:07 10° E visible
01 Feb 9.3 01:55:03 20° ENE 01:55:03 20° ENE 01:57:48 10° ENE visible
01 Feb 7.5 03:53:04 81° N 03:53:04 81° N 04:03:08 10° ENE visible
01 Feb 7.9 05:51:05 19° WNW 05:58:44 61° N 06:08:49 10° E visible
02 Feb 9.6 01:31:15 14° ENE 01:31:15 14° ENE 01:32:29 10° ENE visible
02 Feb 7.7 03:29:16 68° NE 03:29:16 68° NE 03:37:53 10° ENE visible
02 Feb 7.8 05:27:17 26° WNW 05:33:26 61° N 05:43:30 10° ENE visible
03 Feb 8.1 03:05:26 53° ENE 03:05:26 53° ENE 03:12:38 10° ENE visible
03 Feb 7.8 05:03:27 35° WNW 05:08:07 61° N 05:18:11 10° ENE visible
